Multibeam Report for AR23-01


Ship Name: Neil Armstrong
Chief Scientist: Keigwin, Lloyd
Woods Hole Oceanographic Institution
Source Organization: Rolling Deck to Repository
Start Date: 2017-09-11
End Date: 2017-10-02


View ISO Metadata

Visit the full NCEI Bathymetry Viewer


Multibeam Bathymetry

Cruise Details

Project: Deep Water Hydrography in the Glacial Western North Atlantic
Instrument: Kongsberg EM710 and EM122

Data Quality

Number of Files: 634
Number of Records: 320677
BATHYMETRY DATA Quantity Percentage
Number of Beams 131996656 100%
Number of Good Beams 121086729 91.73%
Number of Zero Beams 6089 0.0%
Number of Flagged Beams 10903838 8.26%

Navigation Totals

Total Time: 296.4876 hours
Total Track Length: 5144.4591 km
Average Speed: 17.351 km/hr (9.3688 knots)

Cruise Bounds

Northern Extent: 40.931084
Southern Extent: 34.20097
Western Extent: -70.41236
Eastern Extent: -28.31563

Limits

Minimum Sonar Depth 0 Maximum Sonar Depth 9.0223
Minimum Altitude 7.5508 Maximum Altitude 6398.4565
Minimum Depth 4.738 Maximum Depth 6898.0078

File Information

Full Resolution Bathymetry as collected (raw): 627

Files File Size Description
0000_20160207_162844_ShipName.all.mb58.gz 1.42MB Kongsberg multibeam vendor format
0000_20170912_040007_Armstrong.all.mb58.gz 85.81MB Kongsberg multibeam vendor format
0001_20160207_162852_ShipName.all.mb58.gz 0.56MB Kongsberg multibeam vendor format
0001_20170912_043005_Armstrong.all.mb58.gz 81.72MB Kongsberg multibeam vendor format
0002_20160207_162856_ShipName.all.mb58.gz 342.2KB Kongsberg multibeam vendor format
0002_20170912_050003_Armstrong.all.mb58.gz 77.03MB Kongsberg multibeam vendor format
0003_20170912_053009_Armstrong.all.mb58.gz 75.97MB Kongsberg multibeam vendor format
0004_20170912_060008_Armstrong.all.mb58.gz 75.89MB Kongsberg multibeam vendor format
0005_20170912_063004_Armstrong.all.mb58.gz 73.56MB Kongsberg multibeam vendor format
0006_20170912_070002_Armstrong.all.mb58.gz 70.89MB Kongsberg multibeam vendor format
0007_20170912_073006_Armstrong.all.mb58.gz 66.79MB Kongsberg multibeam vendor format
0008_20170912_080008_Armstrong.all.mb58.gz 66.12MB Kongsberg multibeam vendor format
0009_20170912_083007_Armstrong.all.mb58.gz 66.15MB Kongsberg multibeam vendor format
0010_20170912_090013_Armstrong.all.mb58.gz 65.50MB Kongsberg multibeam vendor format
0011_20170912_093004_Armstrong.all.mb58.gz 65.75MB Kongsberg multibeam vendor format
0012_20170912_100006_Armstrong.all.mb58.gz 65.63MB Kongsberg multibeam vendor format
0013_20170912_103013_Armstrong.all.mb58.gz 64.80MB Kongsberg multibeam vendor format
0014_20170912_110007_Armstrong.all.mb58.gz 64.59MB Kongsberg multibeam vendor format
0015_20170912_113010_Armstrong.all.mb58.gz 63.95MB Kongsberg multibeam vendor format
0016_20170912_120008_Armstrong.all.mb58.gz 63.82MB Kongsberg multibeam vendor format
0017_20170912_123007_Armstrong.all.mb58.gz 64.22MB Kongsberg multibeam vendor format
0018_20170912_130012_Armstrong.all.mb58.gz 63.91MB Kongsberg multibeam vendor format
0019_20170912_133011_Armstrong.all.mb58.gz 63.14MB Kongsberg multibeam vendor format
0020_20170912_140004_Armstrong.all.mb58.gz 63.71MB Kongsberg multibeam vendor format
0021_20170912_143013_Armstrong.all.mb58.gz 63.10MB Kongsberg multibeam vendor format
0022_20170912_150007_Armstrong.all.mb58.gz 63.10MB Kongsberg multibeam vendor format
0023_20170912_153005_Armstrong.all.mb58.gz 63.33MB Kongsberg multibeam vendor format
0024_20170912_160011_Armstrong.all.mb58.gz 63.18MB Kongsberg multibeam vendor format
0025_20170912_163017_Armstrong.all.mb58.gz 63.23MB Kongsberg multibeam vendor format
0026_20170912_170008_Armstrong.all.mb58.gz 63.06MB Kongsberg multibeam vendor format
0027_20170912_173012_Armstrong.all.mb58.gz 62.89MB Kongsberg multibeam vendor format
0028_20170912_180016_Armstrong.all.mb58.gz 62.43MB Kongsberg multibeam vendor format
0029_20170912_183007_Armstrong.all.mb58.gz 62.94MB Kongsberg multibeam vendor format
0030_20170912_190011_Armstrong.all.mb58.gz 62.97MB Kongsberg multibeam vendor format
0031_20170912_193017_Armstrong.all.mb58.gz 62.83MB Kongsberg multibeam vendor format
0032_20170912_200019_Armstrong.all.mb58.gz 62.67MB Kongsberg multibeam vendor format
0033_20170912_203017_Armstrong.all.mb58.gz 62.20MB Kongsberg multibeam vendor format
0034_20170912_210004_Armstrong.all.mb58.gz 63.22MB Kongsberg multibeam vendor format
0035_20170912_213021_Armstrong.all.mb58.gz 62.45MB Kongsberg multibeam vendor format
0036_20170912_220018_Armstrong.all.mb58.gz 62.63MB Kongsberg multibeam vendor format
0037_20170912_223020_Armstrong.all.mb58.gz 62.29MB Kongsberg multibeam vendor format
0038_20170912_230011_Armstrong.all.mb58.gz 62.47MB Kongsberg multibeam vendor format
0039_20170912_233007_Armstrong.all.mb58.gz 62.93MB Kongsberg multibeam vendor format
0040_20170913_000019_Armstrong.all.mb58.gz 62.44MB Kongsberg multibeam vendor format
0041_20170913_003015_Armstrong.all.mb58.gz 62.39MB Kongsberg multibeam vendor format
0042_20170913_010009_Armstrong.all.mb58.gz 62.87MB Kongsberg multibeam vendor format
0043_20170913_013014_Armstrong.all.mb58.gz 62.90MB Kongsberg multibeam vendor format
0044_20170913_020021_Armstrong.all.mb58.gz 61.85MB Kongsberg multibeam vendor format
0045_20170913_023003_Armstrong.all.mb58.gz 63.00MB Kongsberg multibeam vendor format
0046_20170913_030012_Armstrong.all.mb58.gz 62.46MB Kongsberg multibeam vendor format
0047_20170913_033009_Armstrong.all.mb58.gz 62.89MB Kongsberg multibeam vendor format
0048_20170913_040020_Armstrong.all.mb58.gz 61.99MB Kongsberg multibeam vendor format
0049_20170913_043013_Armstrong.all.mb58.gz 62.27MB Kongsberg multibeam vendor format
0050_20170913_050011_Armstrong.all.mb58.gz 62.26MB Kongsberg multibeam vendor format
0051_20170913_053009_Armstrong.all.mb58.gz 62.08MB Kongsberg multibeam vendor format
0052_20170913_060003_Armstrong.all.mb58.gz 62.86MB Kongsberg multibeam vendor format
0053_20170913_063017_Armstrong.all.mb58.gz 61.98MB Kongsberg multibeam vendor format
0054_20170913_070007_Armstrong.all.mb58.gz 62.37MB Kongsberg multibeam vendor format
0055_20170913_073010_Armstrong.all.mb58.gz 62.60MB Kongsberg multibeam vendor format
0056_20170913_080021_Armstrong.all.mb58.gz 61.83MB Kongsberg multibeam vendor format
0057_20170913_083007_Armstrong.all.mb58.gz 62.55MB Kongsberg multibeam vendor format
0058_20170913_090018_Armstrong.all.mb58.gz 62.36MB Kongsberg multibeam vendor format
0059_20170913_093012_Armstrong.all.mb58.gz 62.39MB Kongsberg multibeam vendor format
0060_20170913_100016_Armstrong.all.mb58.gz 65.98MB Kongsberg multibeam vendor format
0061_20170913_103009_Armstrong.all.mb58.gz 69.61MB Kongsberg multibeam vendor format
0062_20170913_110007_Armstrong.all.mb58.gz 69.63MB Kongsberg multibeam vendor format
0063_20170913_113005_Armstrong.all.mb58.gz 70.42MB Kongsberg multibeam vendor format
0064_20170913_120006_Armstrong.all.mb58.gz 62.80MB Kongsberg multibeam vendor format
0065_20170913_123007_Armstrong.all.mb58.gz 62.45MB Kongsberg multibeam vendor format
0066_20170913_130013_Armstrong.all.mb58.gz 62.46MB Kongsberg multibeam vendor format
0067_20170913_133020_Armstrong.all.mb58.gz 61.92MB Kongsberg multibeam vendor format
0068_20170913_140009_Armstrong.all.mb58.gz 62.29MB Kongsberg multibeam vendor format
0069_20170913_143009_Armstrong.all.mb58.gz 62.18MB Kongsberg multibeam vendor format
0070_20170913_150004_Armstrong.all.mb58.gz 62.68MB Kongsberg multibeam vendor format
0071_20170913_153015_Armstrong.all.mb58.gz 62.02MB Kongsberg multibeam vendor format
0072_20170913_160008_Armstrong.all.mb58.gz 62.32MB Kongsberg multibeam vendor format
0073_20170913_163009_Armstrong.all.mb58.gz 62.44MB Kongsberg multibeam vendor format
0074_20170913_170014_Armstrong.all.mb58.gz 62.44MB Kongsberg multibeam vendor format
0075_20170913_173020_Armstrong.all.mb58.gz 62.13MB Kongsberg multibeam vendor format
0076_20170913_180018_Armstrong.all.mb58.gz 62.17MB Kongsberg multibeam vendor format
0077_20170913_183015_Armstrong.all.mb58.gz 62.01MB Kongsberg multibeam vendor format
0078_20170913_190007_Armstrong.all.mb58.gz 62.71MB Kongsberg multibeam vendor format
0079_20170913_193018_Armstrong.all.mb58.gz 47.06MB Kongsberg multibeam vendor format
0080_20170913_195534_Armstrong.all.mb58.gz 62.30MB Kongsberg multibeam vendor format
0081_20170913_202533_Armstrong.all.mb58.gz 62.65MB Kongsberg multibeam vendor format
0082_20170913_205544_Armstrong.all.mb58.gz 61.98MB Kongsberg multibeam vendor format
0083_20170913_212533_Armstrong.all.mb58.gz 62.44MB Kongsberg multibeam vendor format
0084_20170913_215535_Armstrong.all.mb58.gz 62.37MB Kongsberg multibeam vendor format
0085_20170913_222536_Armstrong.all.mb58.gz 62.68MB Kongsberg multibeam vendor format
0086_20170913_225541_Armstrong.all.mb58.gz 62.28MB Kongsberg multibeam vendor format
0087_20170913_232533_Armstrong.all.mb58.gz 62.24MB Kongsberg multibeam vendor format
0088_20170913_235527_Armstrong.all.mb58.gz 62.98MB Kongsberg multibeam vendor format
0089_20170914_002540_Armstrong.all.mb58.gz 62.61MB Kongsberg multibeam vendor format
0090_20170914_005541_Armstrong.all.mb58.gz 62.14MB Kongsberg multibeam vendor format
0091_20170914_012530_Armstrong.all.mb58.gz 62.81MB Kongsberg multibeam vendor format
0092_20170914_015538_Armstrong.all.mb58.gz 62.10MB Kongsberg multibeam vendor format
0093_20170914_022527_Armstrong.all.mb58.gz 62.98MB Kongsberg multibeam vendor format
0094_20170914_025540_Armstrong.all.mb58.gz 62.41MB Kongsberg multibeam vendor format
0095_20170914_032536_Armstrong.all.mb58.gz 62.43MB Kongsberg multibeam vendor format
0096_20170914_035532_Armstrong.all.mb58.gz 62.39MB Kongsberg multibeam vendor format
0097_20170914_042529_Armstrong.all.mb58.gz 62.51MB Kongsberg multibeam vendor format
0098_20170914_045532_Armstrong.all.mb58.gz 62.71MB Kongsberg multibeam vendor format
0099_20170914_052538_Armstrong.all.mb58.gz 62.16MB Kongsberg multibeam vendor format
0100_20170914_055526_Armstrong.all.mb58.gz 62.66MB Kongsberg multibeam vendor format
0101_20170914_062532_Armstrong.all.mb58.gz 62.41MB Kongsberg multibeam vendor format
0102_20170914_065530_Armstrong.all.mb58.gz 62.47MB Kongsberg multibeam vendor format
0103_20170914_072533_Armstrong.all.mb58.gz 62.41MB Kongsberg multibeam vendor format
0104_20170914_075535_Armstrong.all.mb58.gz 62.00MB Kongsberg multibeam vendor format
0105_20170914_082524_Armstrong.all.mb58.gz 62.88MB Kongsberg multibeam vendor format
0106_20170914_085538_Armstrong.all.mb58.gz 62.41MB Kongsberg multibeam vendor format
0107_20170914_092538_Armstrong.all.mb58.gz 62.63MB Kongsberg multibeam vendor format
0108_20170914_095541_Armstrong.all.mb58.gz 62.09MB Kongsberg multibeam vendor format
0109_20170914_102530_Armstrong.all.mb58.gz 62.29MB Kongsberg multibeam vendor format
0110_20170914_105525_Armstrong.all.mb58.gz 62.48MB Kongsberg multibeam vendor format
0111_20170914_112524_Armstrong.all.mb58.gz 62.85MB Kongsberg multibeam vendor format
0112_20170914_115539_Armstrong.all.mb58.gz 61.93MB Kongsberg multibeam vendor format
0113_20170914_122532_Armstrong.all.mb58.gz 62.05MB Kongsberg multibeam vendor format
0114_20170914_125527_Armstrong.all.mb58.gz 62.22MB Kongsberg multibeam vendor format
0115_20170914_132529_Armstrong.all.mb58.gz 62.36MB Kongsberg multibeam vendor format
0116_20170914_135535_Armstrong.all.mb58.gz 62.36MB Kongsberg multibeam vendor format
0117_20170914_142541_Armstrong.all.mb58.gz 62.02MB Kongsberg multibeam vendor format
0118_20170914_145538_Armstrong.all.mb58.gz 62.02MB Kongsberg multibeam vendor format
0119_20170914_152525_Armstrong.all.mb58.gz 62.49MB Kongsberg multibeam vendor format
0120_20170914_155529_Armstrong.all.mb58.gz 49.12MB Kongsberg multibeam vendor format
0121_20170914_163408_Armstrong.all.mb58.gz 62.98MB Kongsberg multibeam vendor format
0122_20170914_170409_Armstrong.all.mb58.gz 62.74MB Kongsberg multibeam vendor format
0123_20170914_173418_Armstrong.all.mb58.gz 61.84MB Kongsberg multibeam vendor format
0124_20170914_180408_Armstrong.all.mb58.gz 62.69MB Kongsberg multibeam vendor format
0125_20170914_183424_Armstrong.all.mb58.gz 61.92MB Kongsberg multibeam vendor format
0126_20170914_190424_Armstrong.all.mb58.gz 22.32MB Kongsberg multibeam vendor format
0127_20170914_191755_Armstrong.all.mb58.gz 61.87MB Kongsberg multibeam vendor format
0128_20170914_194755_Armstrong.all.mb58.gz 62.02MB Kongsberg multibeam vendor format
0129_20170914_201759_Armstrong.all.mb58.gz 61.35MB Kongsberg multibeam vendor format
0130_20170914_204745_Armstrong.all.mb58.gz 61.89MB Kongsberg multibeam vendor format
0131_20170914_211744_Armstrong.all.mb58.gz 61.91MB Kongsberg multibeam vendor format
0132_20170914_214745_Armstrong.all.mb58.gz 32.75MB Kongsberg multibeam vendor format
0133_20170915_032912_Armstrong.all.mb58.gz 62.26MB Kongsberg multibeam vendor format
0134_20170915_035915_Armstrong.all.mb58.gz 62.26MB Kongsberg multibeam vendor format
0135_20170915_042919_Armstrong.all.mb58.gz 62.25MB Kongsberg multibeam vendor format
0136_20170915_045916_Armstrong.all.mb58.gz 62.01MB Kongsberg multibeam vendor format
0137_20170915_052911_Armstrong.all.mb58.gz 62.83MB Kongsberg multibeam vendor format
0138_20170915_055921_Armstrong.all.mb58.gz 62.28MB Kongsberg multibeam vendor format
0139_20170915_062924_Armstrong.all.mb58.gz 62.00MB Kongsberg multibeam vendor format
0140_20170915_065912_Armstrong.all.mb58.gz 62.69MB Kongsberg multibeam vendor format
0141_20170915_072924_Armstrong.all.mb58.gz 62.04MB Kongsberg multibeam vendor format
0142_20170915_075915_Armstrong.all.mb58.gz 61.82MB Kongsberg multibeam vendor format
0143_20170915_082912_Armstrong.all.mb58.gz 62.50MB Kongsberg multibeam vendor format
0144_20170915_085923_Armstrong.all.mb58.gz 61.95MB Kongsberg multibeam vendor format
0145_20170915_092915_Armstrong.all.mb58.gz 61.92MB Kongsberg multibeam vendor format
0146_20170915_095914_Armstrong.all.mb58.gz 62.41MB Kongsberg multibeam vendor format
0147_20170915_102912_Armstrong.all.mb58.gz 58.39MB Kongsberg multibeam vendor format
0148_20170916_001418_Armstrong.all.mb58.gz 62.08MB Kongsberg multibeam vendor format
0149_20170916_004417_Armstrong.all.mb58.gz 62.36MB Kongsberg multibeam vendor format
0150_20170916_011407_Armstrong.all.mb58.gz 62.51MB Kongsberg multibeam vendor format
0151_20170916_014406_Armstrong.all.mb58.gz 62.37MB Kongsberg multibeam vendor format
0152_20170916_021403_Armstrong.all.mb58.gz 62.73MB Kongsberg multibeam vendor format
0153_20170916_024412_Armstrong.all.mb58.gz 62.82MB Kongsberg multibeam vendor format
0154_20170916_031419_Armstrong.all.mb58.gz 62.28MB Kongsberg multibeam vendor format
0155_20170916_034411_Armstrong.all.mb58.gz 62.54MB Kongsberg multibeam vendor format
0156_20170916_041413_Armstrong.all.mb58.gz 62.23MB Kongsberg multibeam vendor format
0157_20170916_044413_Armstrong.all.mb58.gz 57.52MB Kongsberg multibeam vendor format
0157_20170916_051422_Armstrong.all.mb58.gz 62.04MB Kongsberg multibeam vendor format
0158_20170916_054418_Armstrong.all.mb58.gz 61.92MB Kongsberg multibeam vendor format
0159_20170916_061403_Armstrong.all.mb58.gz 62.58MB Kongsberg multibeam vendor format
0160_20170916_064411_Armstrong.all.mb58.gz 62.16MB Kongsberg multibeam vendor format
0161_20170916_071411_Armstrong.all.mb58.gz 61.96MB Kongsberg multibeam vendor format
0162_20170916_074402_Armstrong.all.mb58.gz 62.39MB Kongsberg multibeam vendor format
0163_20170916_081406_Armstrong.all.mb58.gz 62.75MB Kongsberg multibeam vendor format
0164_20170916_084420_Armstrong.all.mb58.gz 61.90MB Kongsberg multibeam vendor format
0165_20170916_091412_Armstrong.all.mb58.gz 62.32MB Kongsberg multibeam vendor format
0166_20170916_094416_Armstrong.all.mb58.gz 62.07MB Kongsberg multibeam vendor format
0167_20170916_101409_Armstrong.all.mb58.gz 62.25MB Kongsberg multibeam vendor format
0168_20170916_104405_Armstrong.all.mb58.gz 62.81MB Kongsberg multibeam vendor format
0169_20170916_111412_Armstrong.all.mb58.gz 62.44MB Kongsberg multibeam vendor format
0170_20170916_114407_Armstrong.all.mb58.gz 62.66MB Kongsberg multibeam vendor format
0171_20170916_121420_Armstrong.all.mb58.gz 61.79MB Kongsberg multibeam vendor format
0172_20170916_124412_Armstrong.all.mb58.gz 62.47MB Kongsberg multibeam vendor format
0173_20170916_131420_Armstrong.all.mb58.gz 62.01MB Kongsberg multibeam vendor format
0174_20170916_134414_Armstrong.all.mb58.gz 62.30MB Kongsberg multibeam vendor format
0175_20170916_141419_Armstrong.all.mb58.gz 61.69MB Kongsberg multibeam vendor format
0176_20170916_144406_Armstrong.all.mb58.gz 62.44MB Kongsberg multibeam vendor format
0177_20170916_151412_Armstrong.all.mb58.gz 62.19MB Kongsberg multibeam vendor format
0178_20170916_154411_Armstrong.all.mb58.gz 62.52MB Kongsberg multibeam vendor format
0179_20170916_161416_Armstrong.all.mb58.gz 62.17MB Kongsberg multibeam vendor format
0180_20170916_164411_Armstrong.all.mb58.gz 62.75MB Kongsberg multibeam vendor format
0181_20170916_171421_Armstrong.all.mb58.gz 61.73MB Kongsberg multibeam vendor format
0182_20170916_174403_Armstrong.all.mb58.gz 62.32MB Kongsberg multibeam vendor format
0183_20170916_181401_Armstrong.all.mb58.gz 62.45MB Kongsberg multibeam vendor format
0184_20170916_184403_Armstrong.all.mb58.gz 62.18MB Kongsberg multibeam vendor format
0185_20170916_191404_Armstrong.all.mb58.gz 62.62MB Kongsberg multibeam vendor format
0186_20170916_194418_Armstrong.all.mb58.gz 62.04MB Kongsberg multibeam vendor format
0187_20170916_201414_Armstrong.all.mb58.gz 61.80MB Kongsberg multibeam vendor format
0188_20170916_204403_Armstrong.all.mb58.gz 62.42MB Kongsberg multibeam vendor format
0189_20170916_211410_Armstrong.all.mb58.gz 62.50MB Kongsberg multibeam vendor format
0190_20170916_214416_Armstrong.all.mb58.gz 62.37MB Kongsberg multibeam vendor format
0191_20170916_221419_Armstrong.all.mb58.gz 62.31MB Kongsberg multibeam vendor format
0192_20170916_224419_Armstrong.all.mb58.gz 61.85MB Kongsberg multibeam vendor format
0193_20170916_231405_Armstrong.all.mb58.gz 62.63MB Kongsberg multibeam vendor format
0194_20170916_234414_Armstrong.all.mb58.gz 62.09MB Kongsberg multibeam vendor format
0195_20170917_001408_Armstrong.all.mb58.gz 62.47MB Kongsberg multibeam vendor format
0196_20170917_004413_Armstrong.all.mb58.gz 62.02MB Kongsberg multibeam vendor format
0197_20170917_011406_Armstrong.all.mb58.gz 62.73MB Kongsberg multibeam vendor format
0198_20170917_014415_Armstrong.all.mb58.gz 62.49MB Kongsberg multibeam vendor format
0199_20170917_021421_Armstrong.all.mb58.gz 61.89MB Kongsberg multibeam vendor format
0200_20170917_024407_Armstrong.all.mb58.gz 62.72MB Kongsberg multibeam vendor format
0201_20170917_031415_Armstrong.all.mb58.gz 62.05MB Kongsberg multibeam vendor format
0202_20170917_034406_Armstrong.all.mb58.gz 62.40MB Kongsberg multibeam vendor format
0203_20170917_041410_Armstrong.all.mb58.gz 62.19MB Kongsberg multibeam vendor format
0204_20170917_044408_Armstrong.all.mb58.gz 61.93MB Kongsberg multibeam vendor format
0205_20170917_051401_Armstrong.all.mb58.gz 62.38MB Kongsberg multibeam vendor format
0206_20170917_054405_Armstrong.all.mb58.gz 62.28MB Kongsberg multibeam vendor format
0207_20170917_061405_Armstrong.all.mb58.gz 62.17MB Kongsberg multibeam vendor format
0208_20170917_064401_Armstrong.all.mb58.gz 62.68MB Kongsberg multibeam vendor format
0209_20170917_071415_Armstrong.all.mb58.gz 62.11MB Kongsberg multibeam vendor format
0210_20170917_074408_Armstrong.all.mb58.gz 62.14MB Kongsberg multibeam vendor format
0211_20170917_081403_Armstrong.all.mb58.gz 62.67MB Kongsberg multibeam vendor format
0212_20170917_084415_Armstrong.all.mb58.gz 62.15MB Kongsberg multibeam vendor format
0213_20170917_091412_Armstrong.all.mb58.gz 62.13MB Kongsberg multibeam vendor format
0214_20170917_094407_Armstrong.all.mb58.gz 62.11MB Kongsberg multibeam vendor format
0215_20170917_101405_Armstrong.all.mb58.gz 62.81MB Kongsberg multibeam vendor format
0216_20170917_104420_Armstrong.all.mb58.gz 62.25MB Kongsberg multibeam vendor format
0217_20170917_111418_Armstrong.all.mb58.gz 62.10MB Kongsberg multibeam vendor format
0218_20170917_114411_Armstrong.all.mb58.gz 62.34MB Kongsberg multibeam vendor format
0219_20170917_121413_Armstrong.all.mb58.gz 62.44MB Kongsberg multibeam vendor format
0220_20170917_124418_Armstrong.all.mb58.gz 61.81MB Kongsberg multibeam vendor format
0221_20170917_131405_Armstrong.all.mb58.gz 62.83MB Kongsberg multibeam vendor format
0222_20170917_134421_Armstrong.all.mb58.gz 62.15MB Kongsberg multibeam vendor format
0223_20170917_141421_Armstrong.all.mb58.gz 61.46MB Kongsberg multibeam vendor format
0224_20170917_144402_Armstrong.all.mb58.gz 62.45MB Kongsberg multibeam vendor format
0225_20170917_151408_Armstrong.all.mb58.gz 62.53MB Kongsberg multibeam vendor format
0226_20170917_154423_Armstrong.all.mb58.gz 61.72MB Kongsberg multibeam vendor format
0227_20170917_161414_Armstrong.all.mb58.gz 62.07MB Kongsberg multibeam vendor format
0228_20170917_164420_Armstrong.all.mb58.gz 61.97MB Kongsberg multibeam vendor format
0229_20170917_171423_Armstrong.all.mb58.gz 61.34MB Kongsberg multibeam vendor format
0230_20170917_174403_Armstrong.all.mb58.gz 62.59MB Kongsberg multibeam vendor format
0231_20170917_181417_Armstrong.all.mb58.gz 61.90MB Kongsberg multibeam vendor format
0232_20170917_184418_Armstrong.all.mb58.gz 61.17MB Kongsberg multibeam vendor format
0233_20170917_191402_Armstrong.all.mb58.gz 62.18MB Kongsberg multibeam vendor format
0234_20170917_194401_Armstrong.all.mb58.gz 62.46MB Kongsberg multibeam vendor format
0235_20170917_201408_Armstrong.all.mb58.gz 62.15MB Kongsberg multibeam vendor format
0236_20170917_204412_Armstrong.all.mb58.gz 62.10MB Kongsberg multibeam vendor format
0237_20170917_211414_Armstrong.all.mb58.gz 61.79MB Kongsberg multibeam vendor format
0238_20170917_214419_Armstrong.all.mb58.gz 61.57MB Kongsberg multibeam vendor format
0239_20170917_221414_Armstrong.all.mb58.gz 62.10MB Kongsberg multibeam vendor format
0240_20170917_224412_Armstrong.all.mb58.gz 61.78MB Kongsberg multibeam vendor format
0241_20170917_231401_Armstrong.all.mb58.gz 62.17MB Kongsberg multibeam vendor format
0242_20170917_234404_Armstrong.all.mb58.gz 62.75MB Kongsberg multibeam vendor format
0243_20170918_001418_Armstrong.all.mb58.gz 61.75MB Kongsberg multibeam vendor format
0244_20170918_004405_Armstrong.all.mb58.gz 62.26MB Kongsberg multibeam vendor format
0245_20170918_011402_Armstrong.all.mb58.gz 62.15MB Kongsberg multibeam vendor format
0246_20170918_014407_Armstrong.all.mb58.gz 61.98MB Kongsberg multibeam vendor format
0247_20170918_021407_Armstrong.all.mb58.gz 62.75MB Kongsberg multibeam vendor format
0248_20170918_024410_Armstrong.all.mb58.gz 64.07MB Kongsberg multibeam vendor format
0249_20170918_031410_Armstrong.all.mb58.gz 62.64MB Kongsberg multibeam vendor format
0250_20170918_034404_Armstrong.all.mb58.gz 62.94MB Kongsberg multibeam vendor format
0251_20170918_041408_Armstrong.all.mb58.gz 62.71MB Kongsberg multibeam vendor format
0252_20170918_044407_Armstrong.all.mb58.gz 63.05MB Kongsberg multibeam vendor format
0253_20170918_051416_Armstrong.all.mb58.gz 62.37MB Kongsberg multibeam vendor format
0254_20170918_054403_Armstrong.all.mb58.gz 63.35MB Kongsberg multibeam vendor format
0255_20170918_061416_Armstrong.all.mb58.gz 62.71MB Kongsberg multibeam vendor format
0256_20170918_064414_Armstrong.all.mb58.gz 62.55MB Kongsberg multibeam vendor format
0257_20170918_071406_Armstrong.all.mb58.gz 63.09MB Kongsberg multibeam vendor format
0258_20170918_074409_Armstrong.all.mb58.gz 63.12MB Kongsberg multibeam vendor format
0259_20170918_081418_Armstrong.all.mb58.gz 62.66MB Kongsberg multibeam vendor format
0260_20170918_084415_Armstrong.all.mb58.gz 62.52MB Kongsberg multibeam vendor format
0261_20170918_091408_Armstrong.all.mb58.gz 63.09MB Kongsberg multibeam vendor format
0262_20170918_094417_Armstrong.all.mb58.gz 62.43MB Kongsberg multibeam vendor format
0263_20170918_101407_Armstrong.all.mb58.gz 63.19MB Kongsberg multibeam vendor format
0264_20170918_104420_Armstrong.all.mb58.gz 62.47MB Kongsberg multibeam vendor format
0265_20170918_111411_Armstrong.all.mb58.gz 30.47MB Kongsberg multibeam vendor format
0266_20170918_144654_Armstrong.all.mb58.gz 61.07MB Kongsberg multibeam vendor format
0267_20170918_151604_Armstrong.all.mb58.gz 62.45MB Kongsberg multibeam vendor format
0268_20170918_154555_Armstrong.all.mb58.gz 63.12MB Kongsberg multibeam vendor format
0269_20170918_161605_Armstrong.all.mb58.gz 62.28MB Kongsberg multibeam vendor format
0270_20170918_164551_Armstrong.all.mb58.gz 63.08MB Kongsberg multibeam vendor format
0271_20170918_171601_Armstrong.all.mb58.gz 62.72MB Kongsberg multibeam vendor format
0272_20170918_174603_Armstrong.all.mb58.gz 62.41MB Kongsberg multibeam vendor format
0273_20170918_181559_Armstrong.all.mb58.gz 62.71MB Kongsberg multibeam vendor format
0274_20170918_184610_Armstrong.all.mb58.gz 62.11MB Kongsberg multibeam vendor format
0275_20170918_191608_Armstrong.all.mb58.gz 62.36MB Kongsberg multibeam vendor format
0276_20170918_194611_Armstrong.all.mb58.gz 61.69MB Kongsberg multibeam vendor format
0277_20170918_201552_Armstrong.all.mb58.gz 63.02MB Kongsberg multibeam vendor format
0278_20170918_204604_Armstrong.all.mb58.gz 62.42MB Kongsberg multibeam vendor format
0279_20170918_211557_Armstrong.all.mb58.gz 62.37MB Kongsberg multibeam vendor format
0280_20170918_214600_Armstrong.all.mb58.gz 62.51MB Kongsberg multibeam vendor format
0281_20170918_221600_Armstrong.all.mb58.gz 62.63MB Kongsberg multibeam vendor format
0282_20170918_224604_Armstrong.all.mb58.gz 62.44MB Kongsberg multibeam vendor format
0283_20170918_231558_Armstrong.all.mb58.gz 62.69MB Kongsberg multibeam vendor format
0284_20170918_234601_Armstrong.all.mb58.gz 62.60MB Kongsberg multibeam vendor format
0285_20170919_001558_Armstrong.all.mb58.gz 63.04MB Kongsberg multibeam vendor format
0286_20170919_004604_Armstrong.all.mb58.gz 63.18MB Kongsberg multibeam vendor format
0287_20170919_011603_Armstrong.all.mb58.gz 62.85MB Kongsberg multibeam vendor format
0288_20170919_014603_Armstrong.all.mb58.gz 63.10MB Kongsberg multibeam vendor format
0289_20170919_021606_Armstrong.all.mb58.gz 62.99MB Kongsberg multibeam vendor format
0290_20170919_024606_Armstrong.all.mb58.gz 62.57MB Kongsberg multibeam vendor format
0291_20170919_031554_Armstrong.all.mb58.gz 63.58MB Kongsberg multibeam vendor format
0292_20170919_034605_Armstrong.all.mb58.gz 62.84MB Kongsberg multibeam vendor format
0293_20170919_041557_Armstrong.all.mb58.gz 63.03MB Kongsberg multibeam vendor format
0294_20170919_044557_Armstrong.all.mb58.gz 63.41MB Kongsberg multibeam vendor format
0295_20170919_051609_Armstrong.all.mb58.gz 62.78MB Kongsberg multibeam vendor format
0296_20170919_054603_Armstrong.all.mb58.gz 62.85MB Kongsberg multibeam vendor format
0297_20170919_061600_Armstrong.all.mb58.gz 62.73MB Kongsberg multibeam vendor format
0298_20170919_064552_Armstrong.all.mb58.gz 10.45MB Kongsberg multibeam vendor format
0300_20170919_093737_Armstrong.all.mb58.gz 0.66MB Kongsberg multibeam vendor format
0301_20170920_094110_Armstrong.all.mb58.gz 62.32MB Kongsberg multibeam vendor format
0302_20170920_101109_Armstrong.all.mb58.gz 1.71MB Kongsberg multibeam vendor format
0303_20170920_101232_Armstrong.all.mb58.gz 63.02MB Kongsberg multibeam vendor format
0304_20170920_104248_Armstrong.all.mb58.gz 61.91MB Kongsberg multibeam vendor format
0305_20170920_111240_Armstrong.all.mb58.gz 61.70MB Kongsberg multibeam vendor format
0306_20170920_114234_Armstrong.all.mb58.gz 62.04MB Kongsberg multibeam vendor format
0307_20170920_121243_Armstrong.all.mb58.gz 61.43MB Kongsberg multibeam vendor format
0308_20170920_124237_Armstrong.all.mb58.gz 61.88MB Kongsberg multibeam vendor format
0309_20170920_131244_Armstrong.all.mb58.gz 60.99MB Kongsberg multibeam vendor format
0310_20170920_134233_Armstrong.all.mb58.gz 62.77MB Kongsberg multibeam vendor format
0311_20170920_141248_Armstrong.all.mb58.gz 62.48MB Kongsberg multibeam vendor format
0312_20170920_144244_Armstrong.all.mb58.gz 62.22MB Kongsberg multibeam vendor format
0313_20170920_151241_Armstrong.all.mb58.gz 62.17MB Kongsberg multibeam vendor format
0314_20170920_154241_Armstrong.all.mb58.gz 61.55MB Kongsberg multibeam vendor format
0315_20170920_161230_Armstrong.all.mb58.gz 61.67MB Kongsberg multibeam vendor format
0316_20170920_164233_Armstrong.all.mb58.gz 61.53MB Kongsberg multibeam vendor format
0317_20170920_171230_Armstrong.all.mb58.gz 61.85MB Kongsberg multibeam vendor format
0318_20170920_174237_Armstrong.all.mb58.gz 61.92MB Kongsberg multibeam vendor format
0319_20170920_181247_Armstrong.all.mb58.gz 61.71MB Kongsberg multibeam vendor format
0320_20170920_184249_Armstrong.all.mb58.gz 61.24MB Kongsberg multibeam vendor format
0321_20170920_191248_Armstrong.all.mb58.gz 39.19MB Kongsberg multibeam vendor format
0322_20170919_194921_Armstrong.all.mb58.gz 61.50MB Kongsberg multibeam vendor format
0323_20170919_201912_Armstrong.all.mb58.gz 32.46MB Kongsberg multibeam vendor format
0324_20170920_015115_Armstrong.all.mb58.gz 61.57MB Kongsberg multibeam vendor format
0325_20170920_022109_Armstrong.all.mb58.gz 62.39MB Kongsberg multibeam vendor format
0326_20170920_025127_Armstrong.all.mb58.gz 61.38MB Kongsberg multibeam vendor format
0327_20170920_032116_Armstrong.all.mb58.gz 61.45MB Kongsberg multibeam vendor format
0328_20170920_035108_Armstrong.all.mb58.gz 62.19MB Kongsberg multibeam vendor format
0329_20170920_042122_Armstrong.all.mb58.gz 61.35MB Kongsberg multibeam vendor format
0330_20170920_045112_Armstrong.all.mb58.gz 51.84MB Kongsberg multibeam vendor format
0331_20170920_093321_Armstrong.all.mb58.gz 61.72MB Kongsberg multibeam vendor format
0332_20170920_100321_Armstrong.all.mb58.gz 61.89MB Kongsberg multibeam vendor format
0333_20170920_103330_Armstrong.all.mb58.gz 61.79MB Kongsberg multibeam vendor format
0334_20170920_110327_Armstrong.all.mb58.gz 61.54MB Kongsberg multibeam vendor format
0335_20170920_113320_Armstrong.all.mb58.gz 61.71MB Kongsberg multibeam vendor format
0336_20170920_120319_Armstrong.all.mb58.gz 61.91MB Kongsberg multibeam vendor format
0337_20170920_123320_Armstrong.all.mb58.gz 27.15MB Kongsberg multibeam vendor format
0338_20170920_191053_Armstrong.all.mb58.gz 61.70MB Kongsberg multibeam vendor format
0339_20170920_194056_Armstrong.all.mb58.gz 61.93MB Kongsberg multibeam vendor format
0341_20170920_233506_Armstrong.all.mb58.gz 61.73MB Kongsberg multibeam vendor format
0342_20170921_000502_Armstrong.all.mb58.gz 61.92MB Kongsberg multibeam vendor format
0343_20170921_003507_Armstrong.all.mb58.gz 27.49MB Kongsberg multibeam vendor format
0344_20170921_075448_Armstrong.all.mb58.gz 61.62MB Kongsberg multibeam vendor format
0345_20170921_082441_Armstrong.all.mb58.gz 61.93MB Kongsberg multibeam vendor format
0346_20170921_085446_Armstrong.all.mb58.gz 62.03MB Kongsberg multibeam vendor format
0347_20170921_092453_Armstrong.all.mb58.gz 61.58MB Kongsberg multibeam vendor format
0348_20170921_095448_Armstrong.all.mb58.gz 61.69MB Kongsberg multibeam vendor format
0349_20170921_102445_Armstrong.all.mb58.gz 62.17MB Kongsberg multibeam vendor format
0350_20170921_105455_Armstrong.all.mb58.gz 61.28MB Kongsberg multibeam vendor format
0351_20170921_112442_Armstrong.all.mb58.gz 62.07MB Kongsberg multibeam vendor format
0352_20170921_115452_Armstrong.all.mb58.gz 61.61MB Kongsberg multibeam vendor format
0353_20170921_122444_Armstrong.all.mb58.gz 62.25MB Kongsberg multibeam vendor format
0354_20170921_125450_Armstrong.all.mb58.gz 61.93MB Kongsberg multibeam vendor format
0355_20170921_132446_Armstrong.all.mb58.gz 62.45MB Kongsberg multibeam vendor format
0356_20170921_135456_Armstrong.all.mb58.gz 61.80MB Kongsberg multibeam vendor format
0357_20170921_142442_Armstrong.all.mb58.gz 55.97MB Kongsberg multibeam vendor format
0358_20170921_205430_Armstrong.all.mb58.gz 1.18MB Kongsberg multibeam vendor format
0359_20170922_032422_Armstrong.all.mb58.gz 61.83MB Kongsberg multibeam vendor format
0360_20170922_035416_Armstrong.all.mb58.gz 61.98MB Kongsberg multibeam vendor format
0361_20170922_042418_Armstrong.all.mb58.gz 62.01MB Kongsberg multibeam vendor format
0362_20170922_045417_Armstrong.all.mb58.gz 62.06MB Kongsberg multibeam vendor format
0363_20170922_052425_Armstrong.all.mb58.gz 61.77MB Kongsberg multibeam vendor format
0364_20170922_055427_Armstrong.all.mb58.gz 61.40MB Kongsberg multibeam vendor format
0365_20170922_062417_Armstrong.all.mb58.gz 62.03MB Kongsberg multibeam vendor format
0366_20170922_065416_Armstrong.all.mb58.gz 62.74MB Kongsberg multibeam vendor format
0367_20170922_072420_Armstrong.all.mb58.gz 61.86MB Kongsberg multibeam vendor format
0368_20170922_075427_Armstrong.all.mb58.gz 61.60MB Kongsberg multibeam vendor format
0369_20170922_082419_Armstrong.all.mb58.gz 62.50MB Kongsberg multibeam vendor format
0370_20170922_085429_Armstrong.all.mb58.gz 6.59MB Kongsberg multibeam vendor format
0371_20170922_105520_Armstrong.all.mb58.gz 61.95MB Kongsberg multibeam vendor format
0372_20170922_112518_Armstrong.all.mb58.gz 62.04MB Kongsberg multibeam vendor format
0373_20170922_115520_Armstrong.all.mb58.gz 61.73MB Kongsberg multibeam vendor format
0374_20170922_122514_Armstrong.all.mb58.gz 62.45MB Kongsberg multibeam vendor format
0375_20170922_125530_Armstrong.all.mb58.gz 61.65MB Kongsberg multibeam vendor format
0376_20170922_132522_Armstrong.all.mb58.gz 61.61MB Kongsberg multibeam vendor format
0377_20170922_135516_Armstrong.all.mb58.gz 3.66MB Kongsberg multibeam vendor format
0378_20170923_140931_Armstrong.all.mb58.gz 61.65MB Kongsberg multibeam vendor format
0379_20170923_143923_Armstrong.all.mb58.gz 62.23MB Kongsberg multibeam vendor format
0380_20170923_150936_Armstrong.all.mb58.gz 61.24MB Kongsberg multibeam vendor format
0381_20170923_153919_Armstrong.all.mb58.gz 62.53MB Kongsberg multibeam vendor format
0382_20170923_160937_Armstrong.all.mb58.gz 61.37MB Kongsberg multibeam vendor format
0383_20170923_163923_Armstrong.all.mb58.gz 61.98MB Kongsberg multibeam vendor format
0384_20170923_170928_Armstrong.all.mb58.gz 61.50MB Kongsberg multibeam vendor format
0385_20170923_173922_Armstrong.all.mb58.gz 62.36MB Kongsberg multibeam vendor format
0386_20170923_180936_Armstrong.all.mb58.gz 61.69MB Kongsberg multibeam vendor format
0387_20170923_183938_Armstrong.all.mb58.gz 61.74MB Kongsberg multibeam vendor format
0388_20170923_190935_Armstrong.all.mb58.gz 61.44MB Kongsberg multibeam vendor format
0389_20170923_193921_Armstrong.all.mb58.gz 61.91MB Kongsberg multibeam vendor format
0390_20170923_200926_Armstrong.all.mb58.gz 62.32MB Kongsberg multibeam vendor format
0391_20170923_203938_Armstrong.all.mb58.gz 61.10MB Kongsberg multibeam vendor format
0392_20170923_210919_Armstrong.all.mb58.gz 62.00MB Kongsberg multibeam vendor format
0393_20170923_213936_Armstrong.all.mb58.gz 61.63MB Kongsberg multibeam vendor format
0394_20170923_220936_Armstrong.all.mb58.gz 61.56MB Kongsberg multibeam vendor format
0395_20170923_223931_Armstrong.all.mb58.gz 61.71MB Kongsberg multibeam vendor format
0396_20170923_230936_Armstrong.all.mb58.gz 61.45MB Kongsberg multibeam vendor format
0397_20170923_233928_Armstrong.all.mb58.gz 61.61MB Kongsberg multibeam vendor format
0398_20170924_000923_Armstrong.all.mb58.gz 62.31MB Kongsberg multibeam vendor format
0399_20170924_003936_Armstrong.all.mb58.gz 61.72MB Kongsberg multibeam vendor format
0400_20170924_010932_Armstrong.all.mb58.gz 61.44MB Kongsberg multibeam vendor format
0401_20170924_013920_Armstrong.all.mb58.gz 62.20MB Kongsberg multibeam vendor format
0402_20170924_020927_Armstrong.all.mb58.gz 62.05MB Kongsberg multibeam vendor format
0403_20170924_023931_Armstrong.all.mb58.gz 61.57MB Kongsberg multibeam vendor format
0404_20170924_030922_Armstrong.all.mb58.gz 44.12MB Kongsberg multibeam vendor format
0405_20170924_095615_Armstrong.all.mb58.gz 61.97MB Kongsberg multibeam vendor format
0406_20170924_102608_Armstrong.all.mb58.gz 62.52MB Kongsberg multibeam vendor format
0407_20170924_105626_Armstrong.all.mb58.gz 61.16MB Kongsberg multibeam vendor format
0408_20170924_112608_Armstrong.all.mb58.gz 61.82MB Kongsberg multibeam vendor format
0409_20170924_115608_Armstrong.all.mb58.gz 62.22MB Kongsberg multibeam vendor format
0410_20170924_122624_Armstrong.all.mb58.gz 61.57MB Kongsberg multibeam vendor format
0411_20170924_125617_Armstrong.all.mb58.gz 62.17MB Kongsberg multibeam vendor format
0412_20170924_132627_Armstrong.all.mb58.gz 61.44MB Kongsberg multibeam vendor format
0413_20170924_135614_Armstrong.all.mb58.gz 62.25MB Kongsberg multibeam vendor format
0414_20170924_142626_Armstrong.all.mb58.gz 61.64MB Kongsberg multibeam vendor format
0415_20170924_145616_Armstrong.all.mb58.gz 61.75MB Kongsberg multibeam vendor format
0416_20170924_152612_Armstrong.all.mb58.gz 62.33MB Kongsberg multibeam vendor format
0417_20170924_155622_Armstrong.all.mb58.gz 61.98MB Kongsberg multibeam vendor format
0418_20170924_162613_Armstrong.all.mb58.gz 63.16MB Kongsberg multibeam vendor format
0419_20170924_165622_Armstrong.all.mb58.gz 62.81MB Kongsberg multibeam vendor format
0420_20170924_172609_Armstrong.all.mb58.gz 63.46MB Kongsberg multibeam vendor format
0421_20170924_175614_Armstrong.all.mb58.gz 63.57MB Kongsberg multibeam vendor format
0422_20170924_182617_Armstrong.all.mb58.gz 62.98MB Kongsberg multibeam vendor format
0423_20170924_185614_Armstrong.all.mb58.gz 62.75MB Kongsberg multibeam vendor format
0424_20170924_192619_Armstrong.all.mb58.gz 63.23MB Kongsberg multibeam vendor format
0425_20170924_195621_Armstrong.all.mb58.gz 62.54MB Kongsberg multibeam vendor format
0426_20170924_202607_Armstrong.all.mb58.gz 63.58MB Kongsberg multibeam vendor format
0427_20170924_205623_Armstrong.all.mb58.gz 62.80MB Kongsberg multibeam vendor format
0428_20170924_212615_Armstrong.all.mb58.gz 62.39MB Kongsberg multibeam vendor format
0429_20170924_215614_Armstrong.all.mb58.gz 62.05MB Kongsberg multibeam vendor format
0430_20170924_222611_Armstrong.all.mb58.gz 62.96MB Kongsberg multibeam vendor format
0431_20170924_225618_Armstrong.all.mb58.gz 62.65MB Kongsberg multibeam vendor format
0432_20170924_232615_Armstrong.all.mb58.gz 62.92MB Kongsberg multibeam vendor format
0433_20170924_235617_Armstrong.all.mb58.gz 18.89MB Kongsberg multibeam vendor format
0434_20170925_060106_Armstrong.all.mb58.gz 7.86MB Kongsberg multibeam vendor format
0435_20170924_061055_Armstrong.all.mb58.gz 62.20MB Kongsberg multibeam vendor format
0436_20170924_064039_Armstrong.all.mb58.gz 62.95MB Kongsberg multibeam vendor format
0437_20170924_071026_Armstrong.all.mb58.gz 63.68MB Kongsberg multibeam vendor format
0438_20170924_074037_Armstrong.all.mb58.gz 62.84MB Kongsberg multibeam vendor format
0439_20170924_081037_Armstrong.all.mb58.gz 62.66MB Kongsberg multibeam vendor format
0440_20170924_084028_Armstrong.all.mb58.gz 63.45MB Kongsberg multibeam vendor format
0441_20170924_091040_Armstrong.all.mb58.gz 62.16MB Kongsberg multibeam vendor format
0442_20170924_094028_Armstrong.all.mb58.gz 63.17MB Kongsberg multibeam vendor format
0443_20170924_101027_Armstrong.all.mb58.gz 63.54MB Kongsberg multibeam vendor format
0444_20170924_104038_Armstrong.all.mb58.gz 27.32MB Kongsberg multibeam vendor format
0445_20170924_160406_Armstrong.all.mb58.gz 63.64MB Kongsberg multibeam vendor format
0446_20170924_163416_Armstrong.all.mb58.gz 62.96MB Kongsberg multibeam vendor format
0447_20170924_170407_Armstrong.all.mb58.gz 63.43MB Kongsberg multibeam vendor format
0448_20170924_173413_Armstrong.all.mb58.gz 63.37MB Kongsberg multibeam vendor format
0449_20170924_180417_Armstrong.all.mb58.gz 63.15MB Kongsberg multibeam vendor format
0450_20170924_183408_Armstrong.all.mb58.gz 63.60MB Kongsberg multibeam vendor format
0451_20170924_190412_Armstrong.all.mb58.gz 8.86MB Kongsberg multibeam vendor format
0452_20170925_001401_Armstrong.all.mb58.gz 63.68MB Kongsberg multibeam vendor format
0453_20170925_004353_Armstrong.all.mb58.gz 63.95MB Kongsberg multibeam vendor format
0454_20170925_011351_Armstrong.all.mb58.gz 64.76MB Kongsberg multibeam vendor format
0455_20170925_014402_Armstrong.all.mb58.gz 63.87MB Kongsberg multibeam vendor format
0456_20170925_021356_Armstrong.all.mb58.gz 64.31MB Kongsberg multibeam vendor format
0457_20170925_024358_Armstrong.all.mb58.gz 63.61MB Kongsberg multibeam vendor format
0458_20170925_031349_Armstrong.all.mb58.gz 63.97MB Kongsberg multibeam vendor format
0459_20170925_034352_Armstrong.all.mb58.gz 64.62MB Kongsberg multibeam vendor format
0460_20170925_041358_Armstrong.all.mb58.gz 63.91MB Kongsberg multibeam vendor format
0461_20170925_044353_Armstrong.all.mb58.gz 64.03MB Kongsberg multibeam vendor format
0462_20170925_051405_Armstrong.all.mb58.gz 63.04MB Kongsberg multibeam vendor format
0463_20170925_054351_Armstrong.all.mb58.gz 63.43MB Kongsberg multibeam vendor format
0464_20170925_061353_Armstrong.all.mb58.gz 63.72MB Kongsberg multibeam vendor format
0465_20170925_064403_Armstrong.all.mb58.gz 46.27MB Kongsberg multibeam vendor format
0466_20170925_154631_Armstrong.all.mb58.gz 63.12MB Kongsberg multibeam vendor format
0467_20170925_161621_Armstrong.all.mb58.gz 64.05MB Kongsberg multibeam vendor format
0468_20170925_164636_Armstrong.all.mb58.gz 63.35MB Kongsberg multibeam vendor format
0469_20170925_171625_Armstrong.all.mb58.gz 64.13MB Kongsberg multibeam vendor format
0470_20170925_174628_Armstrong.all.mb58.gz 64.13MB Kongsberg multibeam vendor format
0471_20170925_181637_Armstrong.all.mb58.gz 63.77MB Kongsberg multibeam vendor format
0472_20170925_184632_Armstrong.all.mb58.gz 64.01MB Kongsberg multibeam vendor format
0473_20170925_191624_Armstrong.all.mb58.gz 64.76MB Kongsberg multibeam vendor format
0474_20170925_194636_Armstrong.all.mb58.gz 63.87MB Kongsberg multibeam vendor format
0475_20170925_201627_Armstrong.all.mb58.gz 64.69MB Kongsberg multibeam vendor format
0476_20170925_204626_Armstrong.all.mb58.gz 64.41MB Kongsberg multibeam vendor format
0477_20170925_211623_Armstrong.all.mb58.gz 64.73MB Kongsberg multibeam vendor format
0478_20170925_214636_Armstrong.all.mb58.gz 63.83MB Kongsberg multibeam vendor format
0479_20170925_221627_Armstrong.all.mb58.gz 64.38MB Kongsberg multibeam vendor format
0480_20170925_224633_Armstrong.all.mb58.gz 63.93MB Kongsberg multibeam vendor format
0481_20170925_231630_Armstrong.all.mb58.gz 31.59MB Kongsberg multibeam vendor format
0482_20170926_021132_Armstrong.all.mb58.gz 64.27MB Kongsberg multibeam vendor format
0483_20170926_024138_Armstrong.all.mb58.gz 64.06MB Kongsberg multibeam vendor format
0484_20170926_031136_Armstrong.all.mb58.gz 64.07MB Kongsberg multibeam vendor format
0485_20170926_034135_Armstrong.all.mb58.gz 64.00MB Kongsberg multibeam vendor format
0486_20170926_041133_Armstrong.all.mb58.gz 64.13MB Kongsberg multibeam vendor format
0487_20170926_044134_Armstrong.all.mb58.gz 64.19MB Kongsberg multibeam vendor format
0488_20170926_051131_Armstrong.all.mb58.gz 65.02MB Kongsberg multibeam vendor format
0489_20170926_054141_Armstrong.all.mb58.gz 64.54MB Kongsberg multibeam vendor format
0490_20170926_061145_Armstrong.all.mb58.gz 63.97MB Kongsberg multibeam vendor format
0491_20170926_064144_Armstrong.all.mb58.gz 64.08MB Kongsberg multibeam vendor format
0492_20170926_071144_Armstrong.all.mb58.gz 20.76MB Kongsberg multibeam vendor format
0493_20170926_122601_Armstrong.all.mb58.gz 7.08MB Kongsberg multibeam vendor format
0494_20170926_125455_Armstrong.all.mb58.gz 64.28MB Kongsberg multibeam vendor format
0495_20170926_132502_Armstrong.all.mb58.gz 63.74MB Kongsberg multibeam vendor format
0496_20170926_135452_Armstrong.all.mb58.gz 64.41MB Kongsberg multibeam vendor format
0497_20170926_142459_Armstrong.all.mb58.gz 63.83MB Kongsberg multibeam vendor format
0498_20170926_145453_Armstrong.all.mb58.gz 64.13MB Kongsberg multibeam vendor format
0499_20170926_152455_Armstrong.all.mb58.gz 64.31MB Kongsberg multibeam vendor format
0500_20170926_155453_Armstrong.all.mb58.gz 64.10MB Kongsberg multibeam vendor format
0501_20170926_162453_Armstrong.all.mb58.gz 64.51MB Kongsberg multibeam vendor format
0502_20170926_165451_Armstrong.all.mb58.gz 64.81MB Kongsberg multibeam vendor format
0503_20170926_172459_Armstrong.all.mb58.gz 64.64MB Kongsberg multibeam vendor format
0504_20170926_175502_Armstrong.all.mb58.gz 64.21MB Kongsberg multibeam vendor format
0505_20170926_182456_Armstrong.all.mb58.gz 64.32MB Kongsberg multibeam vendor format
0506_20170926_185452_Armstrong.all.mb58.gz 64.42MB Kongsberg multibeam vendor format
0507_20170926_192452_Armstrong.all.mb58.gz 64.51MB Kongsberg multibeam vendor format
0508_20170926_195448_Armstrong.all.mb58.gz 64.58MB Kongsberg multibeam vendor format
0509_20170926_202453_Armstrong.all.mb58.gz 18.93MB Kongsberg multibeam vendor format
0510_20170927_032116_Armstrong.all.mb58.gz 64.22MB Kongsberg multibeam vendor format
0511_20170927_035114_Armstrong.all.mb58.gz 64.67MB Kongsberg multibeam vendor format
0512_20170927_042120_Armstrong.all.mb58.gz 64.95MB Kongsberg multibeam vendor format
0513_20170927_045130_Armstrong.all.mb58.gz 64.29MB Kongsberg multibeam vendor format
0514_20170927_052117_Armstrong.all.mb58.gz 64.69MB Kongsberg multibeam vendor format
0515_20170927_055116_Armstrong.all.mb58.gz 64.95MB Kongsberg multibeam vendor format
0516_20170927_062120_Armstrong.all.mb58.gz 65.09MB Kongsberg multibeam vendor format
0517_20170927_065118_Armstrong.all.mb58.gz 65.00MB Kongsberg multibeam vendor format
0518_20170927_072123_Armstrong.all.mb58.gz 64.67MB Kongsberg multibeam vendor format
0519_20170927_075125_Armstrong.all.mb58.gz 64.50MB Kongsberg multibeam vendor format
0520_20170927_082122_Armstrong.all.mb58.gz 64.41MB Kongsberg multibeam vendor format
0521_20170927_085118_Armstrong.all.mb58.gz 64.31MB Kongsberg multibeam vendor format
0522_20170927_092115_Armstrong.all.mb58.gz 63.92MB Kongsberg multibeam vendor format
0523_20170927_095112_Armstrong.all.mb58.gz 63.92MB Kongsberg multibeam vendor format
0524_20170927_102113_Armstrong.all.mb58.gz 64.13MB Kongsberg multibeam vendor format
0525_20170927_105116_Armstrong.all.mb58.gz 64.05MB Kongsberg multibeam vendor format
0526_20170927_112114_Armstrong.all.mb58.gz 64.26MB Kongsberg multibeam vendor format
0527_20170927_115113_Armstrong.all.mb58.gz 64.71MB Kongsberg multibeam vendor format
0528_20170927_122126_Armstrong.all.mb58.gz 64.17MB Kongsberg multibeam vendor format
0529_20170927_125119_Armstrong.all.mb58.gz 64.42MB Kongsberg multibeam vendor format
0530_20170927_132116_Armstrong.all.mb58.gz 64.32MB Kongsberg multibeam vendor format
0531_20170927_135115_Armstrong.all.mb58.gz 64.71MB Kongsberg multibeam vendor format
0532_20170927_142123_Armstrong.all.mb58.gz 64.41MB Kongsberg multibeam vendor format
0533_20170927_145126_Armstrong.all.mb58.gz 64.41MB Kongsberg multibeam vendor format
0534_20170927_152119_Armstrong.all.mb58.gz 64.45MB Kongsberg multibeam vendor format
0535_20170927_155115_Armstrong.all.mb58.gz 64.32MB Kongsberg multibeam vendor format
0536_20170927_162113_Armstrong.all.mb58.gz 64.41MB Kongsberg multibeam vendor format
0537_20170927_165113_Armstrong.all.mb58.gz 64.22MB Kongsberg multibeam vendor format
0538_20170927_172117_Armstrong.all.mb58.gz 64.45MB Kongsberg multibeam vendor format
0539_20170927_175115_Armstrong.all.mb58.gz 64.62MB Kongsberg multibeam vendor format
0540_20170927_182117_Armstrong.all.mb58.gz 63.98MB Kongsberg multibeam vendor format
0541_20170927_185115_Armstrong.all.mb58.gz 64.05MB Kongsberg multibeam vendor format
0542_20170927_192113_Armstrong.all.mb58.gz 64.30MB Kongsberg multibeam vendor format
0543_20170927_195117_Armstrong.all.mb58.gz 40.93MB Kongsberg multibeam vendor format
0544_20170928_011518_Armstrong.all.mb58.gz 64.54MB Kongsberg multibeam vendor format
0545_20170928_014528_Armstrong.all.mb58.gz 63.78MB Kongsberg multibeam vendor format
0546_20170928_021516_Armstrong.all.mb58.gz 64.05MB Kongsberg multibeam vendor format
0547_20170928_024516_Armstrong.all.mb58.gz 32.15MB Kongsberg multibeam vendor format
0548_20170928_081428_Armstrong.all.mb58.gz 64.24MB Kongsberg multibeam vendor format
0549_20170928_084431_Armstrong.all.mb58.gz 63.91MB Kongsberg multibeam vendor format
0550_20170928_091431_Armstrong.all.mb58.gz 64.39MB Kongsberg multibeam vendor format
0551_20170928_094440_Armstrong.all.mb58.gz 63.78MB Kongsberg multibeam vendor format
0552_20170928_101429_Armstrong.all.mb58.gz 64.46MB Kongsberg multibeam vendor format
0553_20170928_104435_Armstrong.all.mb58.gz 63.89MB Kongsberg multibeam vendor format
0554_20170928_111429_Armstrong.all.mb58.gz 64.77MB Kongsberg multibeam vendor format
0555_20170928_114430_Armstrong.all.mb58.gz 64.51MB Kongsberg multibeam vendor format
0556_20170928_121437_Armstrong.all.mb58.gz 64.77MB Kongsberg multibeam vendor format
0557_20170928_124440_Armstrong.all.mb58.gz 64.95MB Kongsberg multibeam vendor format
0558_20170928_131437_Armstrong.all.mb58.gz 64.56MB Kongsberg multibeam vendor format
0559_20170928_134437_Armstrong.all.mb58.gz 65.06MB Kongsberg multibeam vendor format
0560_20170928_141434_Armstrong.all.mb58.gz 65.33MB Kongsberg multibeam vendor format
0561_20170928_144427_Armstrong.all.mb58.gz 65.17MB Kongsberg multibeam vendor format
0562_20170928_151430_Armstrong.all.mb58.gz 64.91MB Kongsberg multibeam vendor format
0563_20170928_154428_Armstrong.all.mb58.gz 21.45MB Kongsberg multibeam vendor format
0564_20170928_203013_Armstrong.all.mb58.gz 64.93MB Kongsberg multibeam vendor format
0565_20170928_210009_Armstrong.all.mb58.gz 65.12MB Kongsberg multibeam vendor format
0566_20170928_213015_Armstrong.all.mb58.gz 64.59MB Kongsberg multibeam vendor format
0567_20170928_220015_Armstrong.all.mb58.gz 64.91MB Kongsberg multibeam vendor format
0568_20170928_223019_Armstrong.all.mb58.gz 64.95MB Kongsberg multibeam vendor format
0569_20170928_230014_Armstrong.all.mb58.gz 65.13MB Kongsberg multibeam vendor format
0570_20170928_233017_Armstrong.all.mb58.gz 64.58MB Kongsberg multibeam vendor format
0571_20170929_000018_Armstrong.all.mb58.gz 64.25MB Kongsberg multibeam vendor format
0572_20170929_003010_Armstrong.all.mb58.gz 65.05MB Kongsberg multibeam vendor format
0573_20170929_010018_Armstrong.all.mb58.gz 9.63MB Kongsberg multibeam vendor format
0574_20170929_011737_Armstrong.all.mb58.gz 1.39MB Kongsberg multibeam vendor format
0575_20170929_011829_Armstrong.all.mb58.gz 64.70MB Kongsberg multibeam vendor format
0576_20170929_014837_Armstrong.all.mb58.gz 62.80MB Kongsberg multibeam vendor format
0577_20170929_021824_Armstrong.all.mb58.gz 63.55MB Kongsberg multibeam vendor format
0578_20170929_024836_Armstrong.all.mb58.gz 63.10MB Kongsberg multibeam vendor format
0579_20170929_031829_Armstrong.all.mb58.gz 64.55MB Kongsberg multibeam vendor format
0580_20170929_034836_Armstrong.all.mb58.gz 63.56MB Kongsberg multibeam vendor format
0581_20170929_041827_Armstrong.all.mb58.gz 63.62MB Kongsberg multibeam vendor format
0582_20170929_044831_Armstrong.all.mb58.gz 63.35MB Kongsberg multibeam vendor format
0583_20170929_051828_Armstrong.all.mb58.gz 63.44MB Kongsberg multibeam vendor format
0584_20170929_054821_Armstrong.all.mb58.gz 63.84MB Kongsberg multibeam vendor format
0585_20170929_061823_Armstrong.all.mb58.gz 63.31MB Kongsberg multibeam vendor format
0586_20170929_064835_Armstrong.all.mb58.gz 62.82MB Kongsberg multibeam vendor format
0587_20170929_071830_Armstrong.all.mb58.gz 63.56MB Kongsberg multibeam vendor format
0588_20170929_074831_Armstrong.all.mb58.gz 64.42MB Kongsberg multibeam vendor format
0589_20170929_081828_Armstrong.all.mb58.gz 64.76MB Kongsberg multibeam vendor format
0590_20170929_084833_Armstrong.all.mb58.gz 63.61MB Kongsberg multibeam vendor format
0591_20170929_091822_Armstrong.all.mb58.gz 63.68MB Kongsberg multibeam vendor format
0592_20170929_094825_Armstrong.all.mb58.gz 63.86MB Kongsberg multibeam vendor format
0593_20170929_101824_Armstrong.all.mb58.gz 23.88MB Kongsberg multibeam vendor format
9999.all.mb58.gz 14.80MB Kongsberg multibeam vendor format
0000_20160207_155903_ShipName.all.mb58.gz 24.91MB Kongsberg multibeam vendor format
0000_20170911_162349_Armstrong.all.mb58.gz 260.99MB Kongsberg multibeam vendor format
0001_20170911_164533_Armstrong.all.mb58.gz 1.76MB Kongsberg multibeam vendor format
0002_20170911_165134_Armstrong.all.mb58.gz 377.93MB Kongsberg multibeam vendor format
0003_20170911_172134_Armstrong.all.mb58.gz 377.59MB Kongsberg multibeam vendor format
0004_20170911_175134_Armstrong.all.mb58.gz 373.79MB Kongsberg multibeam vendor format
0005_20170911_182134_Armstrong.all.mb58.gz 378.79MB Kongsberg multibeam vendor format
0006_20170911_185134_Armstrong.all.mb58.gz 378.83MB Kongsberg multibeam vendor format
0007_20170911_192134_Armstrong.all.mb58.gz 287.53MB Kongsberg multibeam vendor format
0008_20170911_195135_Armstrong.all.mb58.gz 83.40MB Kongsberg multibeam vendor format
0009_20170911_202135_Armstrong.all.mb58.gz 160.79MB Kongsberg multibeam vendor format
0010_20170911_205134_Armstrong.all.mb58.gz 345.11MB Kongsberg multibeam vendor format
0011_20170911_212134_Armstrong.all.mb58.gz 326.72MB Kongsberg multibeam vendor format
0012_20170911_215134_Armstrong.all.mb58.gz 305.64MB Kongsberg multibeam vendor format
0013_20170911_222134_Armstrong.all.mb58.gz 289.92MB Kongsberg multibeam vendor format
0014_20170911_225134_Armstrong.all.mb58.gz 281.97MB Kongsberg multibeam vendor format
0015_20170911_232134_Armstrong.all.mb58.gz 286.73MB Kongsberg multibeam vendor format
0016_20170911_235134_Armstrong.all.mb58.gz 282.37MB Kongsberg multibeam vendor format
0017_20170912_002134_Armstrong.all.mb58.gz 276.66MB Kongsberg multibeam vendor format
0018_20170912_005135_Armstrong.all.mb58.gz 277.40MB Kongsberg multibeam vendor format
0019_20170912_012134_Armstrong.all.mb58.gz 278.21MB Kongsberg multibeam vendor format
0020_20170912_015135_Armstrong.all.mb58.gz 276.61MB Kongsberg multibeam vendor format
0021_20170912_022135_Armstrong.all.mb58.gz 275.98MB Kongsberg multibeam vendor format
0022_20170912_025134_Armstrong.all.mb58.gz 289.26MB Kongsberg multibeam vendor format
0023_20170912_032134_Armstrong.all.mb58.gz 245.94MB Kongsberg multibeam vendor format
0024_20170912_035134_Armstrong.all.mb58.gz 84.15MB Kongsberg multibeam vendor format
0025_20170912_042134_Armstrong.all.mb58.gz 65.33MB Kongsberg multibeam vendor format
0026_20170912_045135_Armstrong.all.mb58.gz 63.26MB Kongsberg multibeam vendor format
0027_20170912_052135_Armstrong.all.mb58.gz 25.05MB Kongsberg multibeam vendor format
9999.all.mb58.gz 3.58MB Kongsberg multibeam vendor format

Metadata Files: 6

Files File Size Description
AR23-01.xml 58.4KB XML metadata file
bag-info.txt 0.9KB Informal metadata text
bagit.txt 55 Bytes Informal metadata text
file-info.txt 5.2KB Informal metadata text
manifest-md5.txt 4.1KB Informal metadata text
tagmanifest-md5.txt 186 Bytes Informal metadata text

Water Column Sonar Data

Water Column Sonar Data Available: WCSD Map Viewer